Powrót do katalogu

NAVSTAR 30

USA 88

AktywnyNawigacjaMEO
NORAD 22446·PAYLOAD·🇺🇸 United States

Wystrzelony Feb 3, 1993 z Cape Canaveral Space Force Station

Loading…

Następne Przeloty (najbliższe 24 godziny)

TLE

ŚwieżeSource: Space-Track

Epoka: Sep 11, 2026, 09:47 UTC

1 22446U 93007A   26254.40817638 -.00000010  00000-0  00000-0 0  9995
2 22446  53.2270 239.9255 0027559  43.6841 131.7748  1.88094935235624

Śledź NAVSTAR 30 w czasie rzeczywistym z AllMySat

Download on the App Store